Regional Weather Roundup
Issued by NWS

Home | Current Version | Previous Version | Graphics & Text | Print | Product List | Glossary On
Versions: 1 2 3 4 5 6 7 8 9 10 11 12 13 14 15 16 17 18 19 20 21 22 23 24 25 26 27 28 29 30 31 32 33 34 35 36 37 38 39 40 41 42 43 44 45 46 47 48 49 50
000
ASUS44 KMEG 191500
RWRTN
TENNESSEE HOURLY STATE WEATHER ROUNDUP
NATIONAL WEATHER SERVICE MEMPHIS TN
900 AM CST FRI DEC 19 2014

TNZ002-004-019-021-049-052-054-088>092-191600-
WEST TENNESSEE

CITY           SKY/WX    TMP DP  RH WIND       PRES   REMARKS
MEMPHIS INTL   CLOUDY    42  34  73 E6        30.27R
NWS MEMPHIS      N/A     40 N/A N/A MISG        N/A
JACKSON        CLOUDY    38  31  76 NE5       30.29R WCI  34
DYERSBURG      CLOUDY    36  21  55 E6        30.32R WCI  31
UNION CITY     CLOUDY    34  28  80 NE6       30.29R WCI  29
PARIS          CLOUDY    32  27  80 NE8       30.29R WCI  25
LEXINGTON      CLOUDY    36  28  75 NE6       30.26S WCI  31
SAVANNAH       CLOUDY    37  32  81 NE3       30.27R
$$

TNZ008-025-027-028-033-062-065-066-191600-
NORTH MIDDLE TENNESSEE

CITY           SKY/WX    TMP DP  RH WIND       PRES   REMARKS
NASHVILLE      CLOUDY    37  29  72 NE5       30.28S WCI  33
CLARKSVILLE    CLOUDY    35  28  75 NE9       30.29R WCI  28
COOKEVILLE     SUNNY     34  30  86 CALM      30.24R
CROSSVILLE     PTSUNNY   32  28  85 CALM      30.22R FOG
$$

TNZ061-075-076-078-094-096-097-191600-
SOUTH MIDDLE TENNESSEE

CITY           SKY/WX    TMP DP  RH WIND       PRES   REMARKS
FAYETTEVILLE   CLOUDY    34  30  86 MISG      30.23R
TULLAHOMA      CLOUDY    34  30  86 N5        30.23R WCI  30
WINCHESTER     MOSUNNY   36  30  80 N6        30.23R WCI  31
SHELBYVILLE    CLOUDY    36  32  87 N5        30.26S WCI  32
$$

TNZ017-018-042-046-047-191600-
NORTHEAST TENNESSEE

CITY           SKY/WX    TMP DP  RH WIND       PRES   REMARKS
TRI CITIES     CLOUDY    39  23  52 CALM      30.20R
ELIZABETHTON   CLOUDY    37  21  52 CALM      30.19R
$$

TNZ012-013-036-069-073-074-191600-
CENTRAL EAST TENNESSEE

CITY           SKY/WX    TMP DP  RH WIND       PRES   REMARKS
KNOXVILLE      PTSUNNY   39  27  62 N10       30.21R WCI  32
OAK RIDGE      MOSUNNY   39  26  59 NE3       30.24R
GATLINBURG     SUNNY     37  28  70 CALM      30.20S
$$

TNZ083-085-099-191600-
SOUTHEAST TENNESSEE

CITY           SKY/WX    TMP DP  RH WIND       PRES   REMARKS
CHATTANOOGA    PTSUNNY   39  29  67 N9        30.23R WCI  33
$$

SKY/WX REPORTED AS FAIR MEANS FEW OR NO CLOUDS BELOW
12 THOUSAND FEET.




USA.gov is the U.S. government's official web portal to all federal, state and local government web resources and services.